Weather Roundup
Issued by NWS Chicago, IL

Home | Current Version | Previous Version | Graphics & Text | Print | Product List | Glossary On
Versions: 1 2 3 4 5 6 7 8 9 10 11 12 13 14 15 16 17 18 19 20 21 22 23 24 25 26 27 28 29 30 31 32 33 34 35 36 37 38 39 40 41 42 43 44 45 46 47 48 49 50
702
NZUS59 KLOT 152303
HRRLOT

CHICAGO AREA WEATHER ROUNDUP
NATIONAL WEATHER SERVICE CHICAGO/ROMEOVILLE IL
500 PM CST FRI DEC 15 2017

NOTE: "FAIR" INDICATES FEW OR NO CLOUDS BELOW 12,000 FEET WITH NO
SIGNIFICANT WEATHER AND/OR OBSTRUCTIONS TO VISIBILITY.

* THESE STATIONS ARE NOT UNDER NWS QUALITY CONTROL. THEY ALSO MAY NOT
  REPORT WEATHER SUCH AS PRECIPITATION OR FOG.

ILZ005-006-012>014-019>023-160000-
NORTHEAST ILLINOIS

CITY           SKY/WX    TMP DP  RH WIND       PRES   REMARKS
OHARE          CLOUDY    33  21  61 SW8       29.89F WCI  26
MIDWAY         FLURRIES  34  21  59 SW13G22   29.91F WCI  25
AURORA         CLOUDY    33  22  63 SW8       29.91S WCI  26
LANSING*       CLOUDY    32  22  66 SW10G17   29.94R WCI  24
JOLIET*        CLOUDY    35  21  57 SW7       29.93F WCI  29
WAUKEGAN       CLOUDY    31  24  75 SW9       29.87S WCI  23
DUPAGE AIRPORT CLOUDY    32  23  69 SW12      29.89F WCI  23
WHEELING       CLOUDY    33  24  69 SW7       29.91S WCI  27
KANKAKEE*      CLOUDY    33  18  53 SW12      29.97R WCI  25
MORRIS*        CLOUDY    34  20  57 SW12      29.92F WCI  25
LEWIS AIRPORT* CLOUDY    33  21  62 SW12      29.92S WCI  24
NORTHERLY ISL    N/A     33  21  61 SW8         N/A  WCI  26
$$

WIZ051-052-058>065-066-070>072-160000-
SOUTHEAST WISCONSIN

CITY           SKY/WX    TMP DP  RH WIND       PRES   REMARKS
MILWAUKEE      MOCLDY    31  22  69 SW8       29.84F WCI  23
KENOSHA*       CLOUDY    31  23  72 W10       29.86S WCI  22
RACINE*        CLOUDY    31  23  72 SW8       29.87S WCI  23
WAUKESHA       MOCLDY    27  18  69 W7        29.84S WCI  19
WEST BEND      MOCLDY    21  18  86 CALM      29.83S
$$

INZ001>003-010>013-019-020-160000-
NORTHWEST INDIANA

CITY           SKY/WX    TMP DP  RH WIND       PRES   REMARKS
GARY*          CLOUDY    34  19  55 SW10G25   29.94R WCI  26
MICHIGAN CITY* NOT AVBL
RENSSELAER*    NOT AVBL
VALPARAISO     CLOUDY    32  22  66 SW10      29.93R WCI  24
$$

LMZ740>746-160000-
SOUTHERN LAKE MICHIGAN

STATION/POSITION TIME  SKY/WX   TEMP WIND        PRES    VSBY
                                AIR  DIR/SP/G
                 (UTC)          (F)  (DEG/KT/KT) (MB)    (MI)
HARRISON CRIB    2210            33  260/ 16/ 19   N/A
BURNHAM HARBOR   2300            33  210/  7/ 12   N/A
CALUMET HARBOR   2230            32  220/  6/ 11 1012.7R
BURNS HARBOR     2240            33  240/ 14/ 19 1013.9R
MICHIGAN CITY    2240            33  230/ 24/ 28   N/A
$$

ABBREVIATIONS USED IN REMARKS
   TC - TEMPERATURE IN CELSIUS
  WCI - WIND CHILL INDEX
   HX - HEAT INDEX
  VSB - VISIBILITY
$$




USA.gov is the U.S. government's official web portal to all federal, state and local government web resources and services.